[Date Prev][Date Next][Thread Prev][Thread Next] - [Date Index][Thread Index][Author Index]
KEPS
- Subject: [sarex] KEPS
- From: Arthur Rowe <azrowe80@xxxxxxxxxxx>
- Date: Wed, 05 Jul 2006 05:29:49 -0400
- User-Agent: Thunderbird 1.5.0.4 (Windows/20060516)
ISS (ZARYA)
1 25544U 98067A 06185.81069150 .00012429 00000-0 81777-4 0 2276
2 25544 51.6299 96.7045 0010699 39.2019 55.4151 15.76082014435944
STS-121
1 29251U 06028A 06185.80348940 .00055600 12106-4 74006-5 0 17
2 29251 51.6297 97.2629 0057780 342.0046 193.3540 16.29698905 02
----
Via the sarex mailing list at AMSAT.ORG courtesy of AMSAT-NA.
To unsubscribe, send "unsubscribe sarex" to Majordomo@amsat.org
AMSAT Home